Tracking 19170 objects as of 22-May-2018
HD Live streaming from Space Station
objects crossing your sky now

NOAA 16 DEB

Track NOAA 16 DEB now!
10-day predictions


NORAD ID: 41412
Int'l Code: 2000-055KR
Perigee: 853.0 km
Apogee: 894.0 km
Inclination: 98.8 °
Period: 102.3 minutes
Semi major axis: 7244 km
RCS: Unknown
Launch date: September 21, 2000
Source: United States (US)
Launch site: AIR FORCE WESTERN TEST RANGE (AFWTR)

Note: This is SATELLITE DEBRIS
aabbcc
Your satellite tracking list
Your tracking list is empty




NASA's NSSDC Master Catalog

Two Line Element Set (TLE):
1 41412U 00055KR  18141.39903315 +.00000590 +00000-0 +37095-3 0  9991
2 41412 098.7673 198.1995 0028357 217.9274 141.9899 14.07958922115615
Source of the keplerian elements: AFSPC